Location: Cointrin
(46.2167°N, 6.1167°E)
Time: 18:49:55
(UTC+00:00)

Spot 1 - Pass Details

Date: 08 February 2023
Orbit: 575 x 773 km, 98.8° (Epoch: 21 March)

Event Time Altitude Azimuth Distance (km) Brightness Sun altitude
Exits shadow 18:26:16 25° 44° (NE) 1,178 5.1 -17.0°
Maximum altitude 18:28:11 43° 100° (E) 818 4.2 -17.3°
Drops below altitude 10° 18:32:05 10° 173° (S) 1,899 6.5 -18.0°
Sets 18:34:20 0° 180° (S) 2,811 7.5 -18.4°
